Weather in Kundysh

Russia / Mari El Republic     56°24′22″N   48°09′14″E
temp.,
°C
wind,
m/s
gust,
m/s
humid.,
%
clouds,
%
prec.,
mm/h
press.,
hPa
HPBL,
m
9 december, thu
thu900:00−1s41294100 0.0 1024380
03:000sse41198100 0.0 1023453
06:000sse4997100 0.0 1023607
09:00−1sse41097100 0.0 1023519
12:00−1sse3896100 0.0 1022485
15:00−1sse3896100 0.1 1022391
18:00−2s2697100 0.1 1022273
21:00−2ssw2598100 0.6 1023200
10 december, fri
fri1000:00−5nnw489560 0.6 1024257
03:00−10n4109438 0.6 1027267
06:00−14n39935 0.0 1030207
09:00−15n310925 0.0 1032225
12:00−12n48855 0.0 1033266
15:00−14n38915 0.0 1035248
18:00−16nne28935 0.0 1037189
21:00−16nne38925 0.0 1038188
11 december, sat
sat1100:00−16ne38915 0.0 1039184
03:00−16ne39915 0.0 1040196
06:00−16ne28935 0.0 1041167
09:00−15ne28925 0.0 1042165
12:00−11ene26805 0.0 1042198
15:00−13ne22945 0.0 104236
18:00−14ene26925 0.0 104396
21:00−13e28915 0.0 1043136
12 december, sun
sun1200:00−14ese24945 0.0 104468
03:00−14ese24935 0.0 104470
06:00−14ese12945 0.0 104435
09:00−14se24905 0.0 104467
12:00−8sse267922 0.0 1044165
15:00−11sse219259 0.0 104325
18:00−12sse27919 0.0 104398
21:00−13s25925 0.0 104379
13 december, mon
mon1300:00−13s269330 0.0 104289
03:00−13s259455 0.0 104278
06:00−13s259132 0.0 104175
09:00−13s25899 0.0 104070
12:00−7ssw277798 0.0 1039172
15:00−10s2589100 0.0 103964
18:00−11s2689100 0.0 103887
21:00−10s2786100 0.0 1037125